When you browse on this site, cookies collect data to enhance your experience and personalize the content and advertising you see.
Visit our Privacy Policy to learn more. By continuing to use the site, you agree to this use of cookies and data.

Meteo pe oră la Benguela

Astăzi, 10 Iulie, Vineri

Timp Temperatura Precipitaţii Vânt Presiune Umiditate
00:00 +20°C° 0 mm 1 m/s 760 mmHg 90%
01:00 +20°C° 0 mm 1 m/s 760 mmHg 89%
02:00 +19°C° 0 mm 1 m/s 760 mmHg 87%
03:00 +19°C° 0 mm 1 m/s 760 mmHg 86%
04:00 +19°C° 0 mm 1 m/s 759 mmHg 85%
05:00 +19°C° 0 mm 1 m/s 760 mmHg 83%
06:00 +18°C° 0 mm 0 m/s 760 mmHg 82%
07:00 +19°C° 0 mm 0 m/s 761 mmHg 77%
08:00 +24°C° 0 mm 1 m/s 760 mmHg 66%
09:00 +26°C° 0 mm 1 m/s 760 mmHg 54%
10:00 +29°C° 0 mm 1 m/s 760 mmHg 43%
11:00 +31°C° 0 mm 2 m/s 760 mmHg 40%
12:00 +33°C° 0 mm 4 m/s 759 mmHg 37%
13:00 +34°C° 0 mm 5 m/s 758 mmHg 34%
14:00 +33°C° 0 mm 5 m/s 758 mmHg 38%
15:00 +32°C° 0 mm 5 m/s 758 mmHg 43%
16:00 +30°C° 0 mm 5 m/s 757 mmHg 47%
17:00 +28°C° 0 mm 4 m/s 758 mmHg 58%
18:00 +25°C° 0 mm 3 m/s 758 mmHg 68%
19:00 +21°C° 0 mm 2 m/s 758 mmHg 79%
20:00 +21°C° 0 mm 2 m/s 759 mmHg 81%
21:00 +21°C° 0 mm 2 m/s 759 mmHg 83%
22:00 +21°C° 0 mm 2 m/s 760 mmHg 85%
23:00 +20°C° 0 mm 2 m/s 760 mmHg 85%

Mâine, 11 Iulie, Sâmbătă

Timp Temperatura Precipitaţii Vânt Presiune Umiditate
00:00 +20°C° 0 mm 2 m/s 759 mmHg 86%
01:00 +20°C° 0 mm 2 m/s 759 mmHg 87%
02:00 +20°C° 0 mm 3 m/s 759 mmHg 87%
03:00 +19°C° 0 mm 3 m/s 759 mmHg 87%
04:00 +19°C° 0 mm 3 m/s 759 mmHg 87%
05:00 +19°C° 0 mm 3 m/s 759 mmHg 85%
06:00 +20°C° 0 mm 3 m/s 760 mmHg 82%
07:00 +20°C° 0 mm 2 m/s 760 mmHg 80%
08:00 +24°C° 0 mm 2 m/s 760 mmHg 67%
09:00 +27°C° 0 mm 2 m/s 760 mmHg 55%
10:00 +30°C° 0 mm 2 m/s 760 mmHg 43%
11:00 +31°C° 0 mm 3 m/s 759 mmHg 42%
12:00 +33°C° 0 mm 3 m/s 758 mmHg 42%
13:00 +34°C° 0 mm 4 m/s 757 mmHg 41%
14:00 +33°C° 0 mm 4 m/s 757 mmHg 46%
15:00 +30°C° 0 mm 3 m/s 757 mmHg 51%
16:00 +29°C° 0 mm 3 m/s 757 mmHg 55%
17:00 +27°C° 0 mm 3 m/s 757 mmHg 66%
18:00 +24°C° 0 mm 2 m/s 758 mmHg 76%
19:00 +21°C° 0 mm 2 m/s 758 mmHg 87%
20:00 +20°C° 0 mm 2 m/s 759 mmHg 88%
21:00 +21°C° 0 mm 1 m/s 759 mmHg 90%
22:00 +20°C° 0 mm 1 m/s 760 mmHg 92%
23:00 +20°C° 0 mm 1 m/s 760 mmHg 91%

Poimâine, 12 Iulie, Duminică

Timp Temperatura Precipitaţii Vânt Presiune Umiditate
00:00 +20°C° 0 mm 1 m/s 760 mmHg 91%
01:00 +20°C° 0 mm 1 m/s 760 mmHg 91%
02:00 +19°C° 0 mm 1 m/s 759 mmHg 91%
03:00 +17°C° 0 mm 0 m/s 759 mmHg 90%
04:00 +17°C° 0 mm 0 m/s 759 mmHg 90%
05:00 +19°C° 0 mm 1 m/s 759 mmHg 90%
06:00 +20°C° 0 mm 1 m/s 760 mmHg 90%
07:00 +20°C° 0 mm 1 m/s 760 mmHg 90%
08:00 +23°C° 0 mm 2 m/s 760 mmHg 80%
09:00 +25°C° 0 mm 2 m/s 760 mmHg 70%
10:00 +28°C° 0 mm 3 m/s 760 mmHg 60%
11:00 +28°C° 0 mm 3 m/s 759 mmHg 58%
12:00 +29°C° 0 mm 4 m/s 759 mmHg 56%
13:00 +29°C° 0 mm 4 m/s 758 mmHg 55%
14:00 +29°C° 0 mm 4 m/s 758 mmHg 58%
15:00 +28°C° 0 mm 4 m/s 757 mmHg 60%
16:00 +27°C° 0 mm 4 m/s 757 mmHg 63%
17:00 +26°C° 0 mm 3 m/s 758 mmHg 71%
18:00 +24°C° 0 mm 2 m/s 758 mmHg 79%
19:00 +23°C° 0 mm 2 m/s 759 mmHg 86%
20:00 +23°C° 0 mm 1 m/s 760 mmHg 84%
21:00 +23°C° 0 mm 1 m/s 760 mmHg 82%
22:00 +22°C° 0 mm 0 m/s 760 mmHg 80%
23:00 +23°C° 0 mm 1 m/s 760 mmHg 83%

13 Iulie, Luni

Timp Temperatura Precipitaţii Vânt Presiune Umiditate
00:00 +22°C° 0 mm 1 m/s 760 mmHg 86%
01:00 +21°C° 0 mm 1 m/s 760 mmHg 89%
02:00 +20°C° 0 mm 1 m/s 759 mmHg 90%
03:00 +20°C° 0 mm 1 m/s 759 mmHg 91%
04:00 +17°C° 0 mm 0 m/s 759 mmHg 93%
05:00 +19°C° 0 mm 1 m/s 759 mmHg 92%
06:00 +20°C° 0 mm 1 m/s 760 mmHg 91%
07:00 +20°C° 0 mm 1 m/s 760 mmHg 90%
08:00 +22°C° 0 mm 1 m/s 760 mmHg 83%
09:00 +24°C° 0 mm 2 m/s 760 mmHg 76%
10:00 +26°C° 0 mm 2 m/s 760 mmHg 68%
11:00 +27°C° 0 mm 2 m/s 759 mmHg 65%
12:00 +28°C° 0 mm 3 m/s 759 mmHg 62%
13:00 +28°C° 0 mm 3 m/s 758 mmHg 59%
14:00 +28°C° 0 mm 3 m/s 757 mmHg 61%
15:00 +28°C° 0 mm 3 m/s 757 mmHg 63%
16:00 +27°C° 0 mm 3 m/s 756 mmHg 66%
17:00 +26°C° 0 mm 3 m/s 757 mmHg 73%
18:00 +24°C° 0 mm 2 m/s 758 mmHg 81%
19:00 +21°C° 0 mm 2 m/s 758 mmHg 89%
20:00 +21°C° 0 mm 2 m/s 759 mmHg 89%
21:00 +22°C° 0 mm 1 m/s 759 mmHg 88%
22:00 +22°C° 0 mm 1 m/s 760 mmHg 87%
23:00 +21°C° 0 mm 1 m/s 760 mmHg 89%

14 Iulie, Marţi

Timp Temperatura Precipitaţii Vânt Presiune Umiditate
00:00 +21°C° 0 mm 1 m/s 760 mmHg 91%
01:00 +20°C° 0 mm 1 m/s 759 mmHg 93%
02:00 +20°C° 0 mm 1 m/s 759 mmHg 93%
03:00 +17°C° 0 mm 0 m/s 759 mmHg 93%
04:00 +17°C° 0 mm 0 m/s 759 mmHg 94%
05:00 +20°C° 0 mm 1 m/s 759 mmHg 92%
06:00 +20°C° 0 mm 1 m/s 760 mmHg 91%
07:00 +21°C° 0 mm 1 m/s 760 mmHg 89%
08:00 +23°C° 0 mm 1 m/s 760 mmHg 79%
09:00 +25°C° 0 mm 1 m/s 760 mmHg 70%
10:00 +27°C° 0 mm 2 m/s 760 mmHg 60%
11:00 +28°C° 0 mm 2 m/s 759 mmHg 56%
12:00 +29°C° 0 mm 3 m/s 758 mmHg 52%
13:00 +31°C° 0 mm 3 m/s 758 mmHg 49%
14:00 +30°C° 0 mm 4 m/s 757 mmHg 52%
15:00 +29°C° 0 mm 4 m/s 756 mmHg 56%
16:00 +28°C° 0 mm 4 m/s 756 mmHg 60%
17:00 +26°C° 0 mm 3 m/s 756 mmHg 69%
18:00 +24°C° 0 mm 2 m/s 757 mmHg 79%
19:00 +21°C° 0 mm 2 m/s 758 mmHg 88%
20:00 +22°C° 0 mm 1 m/s 758 mmHg 90%
21:00 +21°C° 0 mm 1 m/s 759 mmHg 91%
22:00 +20°C° 0 mm 1 m/s 759 mmHg 93%
23:00 +20°C° 0 mm 1 m/s 759 mmHg 93%

15 Iulie, Miercuri

Timp Temperatura Precipitaţii Vânt Presiune Umiditate
00:00 +19°C° 0 mm 2 m/s 759 mmHg 93%
01:00 +19°C° 0 mm 2 m/s 759 mmHg 93%
02:00 +19°C° 0 mm 2 m/s 759 mmHg 92%
03:00 +20°C° 0 mm 1 m/s 759 mmHg 91%
04:00 +19°C° 0 mm 1 m/s 759 mmHg 90%
05:00 +20°C° 0 mm 1 m/s 760 mmHg 89%
06:00 +20°C° 0 mm 1 m/s 760 mmHg 88%
07:00 +19°C° 0 mm 2 m/s 761 mmHg 86%
08:00 +23°C° 0 mm 1 m/s 761 mmHg 74%
09:00 +26°C° 0 mm 1 m/s 760 mmHg 61%
10:00 +29°C° 0 mm 1 m/s 760 mmHg 48%
11:00 +31°C° 0 mm 2 m/s 759 mmHg 45%
12:00 +33°C° 0 mm 3 m/s 759 mmHg 42%
13:00 +34°C° 0 mm 4 m/s 758 mmHg 39%
14:00 +33°C° 0 mm 4 m/s 757 mmHg 45%
15:00 +31°C° 0 mm 3 m/s 757 mmHg 50%
16:00 +29°C° 0 mm 3 m/s 756 mmHg 56%
17:00 +27°C° 0 mm 3 m/s 757 mmHg 68%
18:00 +25°C° 0 mm 2 m/s 758 mmHg 80%
19:00 +21°C° 0 mm 2 m/s 759 mmHg 91%
20:00 +21°C° 0 mm 2 m/s 759 mmHg 92%
21:00 +20°C° 0 mm 2 m/s 760 mmHg 92%
22:00 +20°C° 0 mm 2 m/s 760 mmHg 92%
23:00 +20°C° 0 mm 2 m/s 760 mmHg 91%
Arată mai mult